RYR4PJ LGAV-EPKK

Flight info

Callsign RYR4PJ
Flight time N/A
Altitude 36000
Route KRO UG33 KOROS UN133 ATFIR DCT SOF DCT SODGO DCT VASIS DCT NARKA DCT PERIT DCT KEKED DCT LENOV
Aircraft B738/M-SDE3FGILRWY/SB1

Departure

Time 2026-04-30 19:06
Airport Athens Eleftherios Venizelos International Airport (LGAV)

Arrival

Time N/A
Airport Kraków John Paul II International Airport (EPKK)
Time Latitude Longitude Altitude Speed Heading
2026-04-30 18:47 37.94410 23.95716 286 ft 0 kts 36°
2026-04-30 18:56 37.94405 23.95711 286 ft 2 kts 36°
2026-04-30 18:56 37.94397 23.95703 286 ft 2 kts 37°
2026-04-30 18:56 37.94387 23.95694 287 ft 2 kts 40°
2026-04-30 18:57 37.94376 23.95660 287 ft 2 kts 95°
2026-04-30 18:57 37.94380 23.95642 288 ft 1 kts 120°
2026-04-30 18:57 37.94384 23.95635 288 ft 1 kts 130°
2026-04-30 18:58 37.94386 23.95632 288 ft 0 kts 127°
2026-04-30 19:00 37.94233 23.95669 283 ft 18 kts 203°
2026-04-30 19:00 37.94103 23.95572 281 ft 24 kts 218°
2026-04-30 19:00 37.93849 23.95324 281 ft 21 kts 218°
2026-04-30 19:01 37.93641 23.95128 286 ft 15 kts 218°
2026-04-30 19:01 37.93564 23.95054 288 ft 12 kts 216°
2026-04-30 19:02 37.93422 23.94922 290 ft 16 kts 217°
2026-04-30 19:02 37.93186 23.94694 287 ft 28 kts 217°
2026-04-30 19:03 37.92858 23.94384 277 ft 25 kts 217°
2026-04-30 19:03 37.92575 23.94115 276 ft 26 kts 216°
2026-04-30 19:04 37.92417 23.94191 274 ft 8 kts 112°
2026-04-30 19:04 37.92470 23.94435 274 ft 24 kts 37°
2026-04-30 19:05 37.92941 23.94883 277 ft 88 kts 36°
2026-04-30 19:05 37.94606 23.96489 721 ft 183 kts 37°
2026-04-30 19:06 37.96526 23.98474 2064 ft 190 kts 39°
2026-04-30 19:06 37.97593 23.99603 2456 ft 208 kts 39°
2026-04-30 19:06 38.00064 24.02070 3316 ft 243 kts 31°
2026-04-30 19:07 38.03102 24.04404 4434 ft 268 kts 32°
2026-04-30 19:07 38.04638 24.05769 5181 ft 272 kts 34°
2026-04-30 19:08 38.07718 24.08670 6585 ft 283 kts 34°
2026-04-30 19:08 38.10897 24.11659 8060 ft 289 kts 33°
2026-04-30 19:08 38.12537 24.13199 8763 ft 293 kts 33°
2026-04-30 19:09 38.15821 24.16282 10176 ft 299 kts 32°
2026-04-30 19:09 38.17528 24.17883 10598 ft 313 kts 33°
2026-04-30 19:09 38.19337 24.19575 10959 ft 329 kts 33°
2026-04-30 19:10 38.23187 24.23186 11760 ft 356 kts 33°
2026-04-30 19:10 38.27197 24.26956 13158 ft 363 kts 33°
2026-04-30 19:11 38.29235 24.28875 13815 ft 368 kts 33°
2026-04-30 19:11 38.33372 24.32769 15196 ft 376 kts 33°
2026-04-30 19:11 38.35492 24.34768 15889 ft 379 kts 33°
2026-04-30 19:12 38.37620 24.36778 16546 ft 383 kts 33°
2026-04-30 19:12 38.39759 24.38800 17185 ft 387 kts 33°
2026-04-30 19:12 38.41936 24.40861 17807 ft 391 kts 33°
2026-04-30 19:13 38.46332 24.45028 19065 ft 398 kts 33°
2026-04-30 19:13 38.50219 24.48713 20087 ft 404 kts 33°
2026-04-30 19:13 38.52495 24.50870 20719 ft 406 kts 33°
2026-04-30 19:14 38.54775 24.53031 21237 ft 411 kts 33°
2026-04-30 19:14 38.57073 24.55213 21761 ft 414 kts 33°
2026-04-30 19:14 38.59392 24.57419 22331 ft 417 kts 33°
2026-04-30 19:14 38.61729 24.59643 22840 ft 420 kts 33°
2026-04-30 19:15 38.64061 24.61865 23328 ft 424 kts 33°
2026-04-30 19:15 38.68813 24.66402 24309 ft 430 kts 33°
2026-04-30 19:15 38.71226 24.68709 24779 ft 433 kts 33°
2026-04-30 19:16 38.73649 24.71029 25257 ft 436 kts 33°
2026-04-30 19:16 38.76106 24.73382 25665 ft 440 kts 33°
2026-04-30 19:16 38.80997 24.78082 26559 ft 445 kts 33°
2026-04-30 19:17 38.83531 24.80399 26960 ft 447 kts 29°
2026-04-30 19:17 38.89091 24.83800 27765 ft 444 kts 15°
2026-04-30 19:17 38.92061 24.85030 28196 ft 444 kts 12°
2026-04-30 19:18 38.97024 24.86851 28823 ft 448 kts 11°
2026-04-30 19:18 39.01025 24.88289 29357 ft 451 kts 11°
2026-04-30 19:18 39.04062 24.89320 29686 ft 451 kts
2026-04-30 19:19 39.07151 24.89847 30014 ft 448 kts 358°
2026-04-30 19:19 39.10283 24.89754 30235 ft 447 kts 350°
2026-04-30 19:19 39.16270 24.88167 31281 ft 434 kts 337°
2026-04-30 19:20 39.19059 24.86770 31852 ft 427 kts 331°
2026-04-30 19:20 39.21708 24.85113 32270 ft 424 kts 328°
2026-04-30 19:20 39.26885 24.81534 33340 ft 416 kts 327°
2026-04-30 19:21 39.29412 24.79808 33822 ft 413 kts 328°
2026-04-30 19:21 39.34510 24.76455 34607 ft 411 kts 329°
2026-04-30 19:22 39.39663 24.73179 35154 ft 411 kts 329°
2026-04-30 19:22 39.47354 24.68357 35977 ft 409 kts 329°
2026-04-30 19:23 39.54621 24.63797 36059 ft 417 kts 329°
2026-04-30 19:24 39.62484 24.58861 36064 ft 416 kts 329°
2026-04-30 19:25 39.75501 24.50664 36073 ft 416 kts 329°
2026-04-30 19:26 39.85910 24.44084 36080 ft 416 kts 328°
2026-04-30 19:27 39.93713 24.39135 36089 ft 415 kts 328°
2026-04-30 19:28 40.01466 24.34208 36078 ft 415 kts 328°
2026-04-30 19:29 40.11816 24.27609 36092 ft 414 kts 327°
2026-04-30 19:30 40.22102 24.21025 36090 ft 412 kts 327°
2026-04-30 19:31 40.32371 24.14433 36095 ft 411 kts 327°
2026-04-30 19:31 40.40059 24.09483 36099 ft 411 kts 327°
2026-04-30 19:32 40.45191 24.06170 36104 ft 410 kts 327°
2026-04-30 19:32 40.50300 24.02867 36112 ft 410 kts 327°
2026-04-30 19:33 40.55410 23.99572 36113 ft 410 kts 327°
2026-04-30 19:33 40.60733 23.96724 36113 ft 418 kts 336°
2026-04-30 19:34 40.66447 23.94984 36120 ft 423 kts 341°
2026-04-30 19:35 40.75180 23.92989 36119 ft 425 kts 342°
2026-04-30 19:35 40.81009 23.91662 36118 ft 424 kts 342°
2026-04-30 19:36 40.86818 23.90308 36126 ft 423 kts 342°
2026-04-30 19:36 40.95500 23.88241 36125 ft 424 kts 341°
2026-04-30 19:37 41.01288 23.86855 36120 ft 424 kts 341°
2026-04-30 19:37 41.07107 23.85458 36122 ft 425 kts 341°
2026-04-30 19:38 41.12922 23.84058 36144 ft 425 kts 341°
2026-04-30 19:38 41.18752 23.82649 36099 ft 426 kts 341°
2026-04-30 19:39 41.24550 23.81253 36098 ft 425 kts 342°
2026-04-30 19:39 41.30387 23.79841 36106 ft 425 kts 342°
2026-04-30 19:40 41.36199 23.78437 36100 ft 427 kts 342°
2026-04-30 19:40 41.42065 23.76996 36104 ft 426 kts 341°
2026-04-30 19:41 41.47842 23.75354 36090 ft 424 kts 339°
2026-04-30 19:41 41.53604 23.73621 36096 ft 426 kts 339°
2026-04-30 19:42 41.59381 23.71891 36099 ft 427 kts 340°
2026-04-30 19:42 41.65212 23.70167 36115 ft 427 kts 340°
2026-04-30 19:43 41.70988 23.68465 36095 ft 426 kts 340°
2026-04-30 19:44 41.79670 23.65911 36081 ft 426 kts 340°
2026-04-30 19:44 41.85441 23.64205 36095 ft 430 kts 340°
2026-04-30 19:45 41.91295 23.62471 36114 ft 430 kts 340°
2026-04-30 19:45 41.97140 23.60744 36103 ft 429 kts 340°
2026-04-30 19:46 42.02929 23.59028 36130 ft 428 kts 340°
2026-04-30 19:46 42.08759 23.57291 36127 ft 428 kts 340°
2026-04-30 19:47 42.14582 23.55554 36135 ft 429 kts 340°
2026-04-30 19:47 42.20438 23.53803 36143 ft 436 kts 340°
2026-04-30 19:48 42.26432 23.52006 36145 ft 444 kts 341°
2026-04-30 19:48 42.31022 23.50628 36156 ft 449 kts 341°
2026-04-30 19:49 42.36277 23.49056 36168 ft 448 kts 341°
2026-04-30 19:49 42.69420 23.39040 36275 ft 447 kts 338°
2026-04-30 19:49 42.72398 23.38045 36267 ft 444 kts 342°
2026-04-30 19:50 44.29433 23.03450 36242 ft 438 kts 335°
2026-04-30 19:50 44.35046 23.00083 36349 ft 443 kts 335°
2026-04-30 19:51 44.40885 22.97234 36354 ft 445 kts 341°
2026-04-30 19:51 44.46889 22.95155 36353 ft 446 kts 345°
2026-04-30 19:52 44.52996 22.93442 36351 ft 447 kts 346°
2026-04-30 19:52 44.59115 22.91855 36347 ft 447 kts 347°
2026-04-30 19:53 44.65209 22.90296 36340 ft 448 kts 347°
2026-04-30 19:53 44.71322 22.88729 36333 ft 447 kts 347°
2026-04-30 19:54 44.77445 22.87152 36328 ft 447 kts 347°
2026-04-30 19:54 44.83570 22.85570 36325 ft 447 kts 347°
2026-04-30 19:55 44.89633 22.83806 36318 ft 445 kts 344°
2026-04-30 19:55 44.95595 22.81476 36310 ft 446 kts 342°
2026-04-30 19:56 45.01574 22.78988 36300 ft 447 kts 342°
2026-04-30 19:56 45.07510 22.76541 36266 ft 446 kts 342°
2026-04-30 19:57 45.13468 22.74121 36234 ft 444 kts 342°
2026-04-30 19:57 45.19408 22.71725 36208 ft 444 kts 342°
2026-04-30 19:58 45.25341 22.69336 36187 ft 444 kts 342°
2026-04-30 19:58 45.31282 22.66942 36197 ft 443 kts 342°
2026-04-30 19:59 45.37195 22.64555 36216 ft 444 kts 343°
2026-04-30 20:00 45.46129 22.60940 36253 ft 443 kts 343°
2026-04-30 20:00 45.52045 22.58540 36276 ft 443 kts 343°
2026-04-30 20:01 45.60897 22.54938 36271 ft 442 kts 343°
2026-04-30 20:01 45.66839 22.52514 36262 ft 442 kts 343°
2026-04-30 20:02 45.73724 22.49698 36248 ft 442 kts 343°